Beckley, WV

4:44 PM EDT on August 19, 2017 (GMT -0400)
Raleigh County Memorial

Weather History for KBKW - January, 2011

Change the Weather History Date:

Tuesday, January 25, 2011

  Actual Average Record
Temperature  
Mean Temperature 38 °F 31 °F  
Max Temperature 45 °F 40 °F 74 °F (1950)
Min Temperature 30 °F 23 °F -15 °F (1961)
Degree Days  
Heating Degree Days 27 34  
Month to date heating degree days 959 850  
Since 1 July heating degree days 3178 2943  
Cooling Degree Days 0 0  
Month to date cooling degree days 0 0  
Year to date cooling degree days 0 0  
Moisture  
Dew Point 24 °F    
Average Humidity 61    
Maximum Humidity 76    
Minimum Humidity 45    
Precipitation  
Precipitation 0.04 in 0.09 in 0.95 in (1978)
Month to date precipitation 1.00 2.27  
Year to date precipitation 1.00 2.27  
Snow  
Snow 0.00 in - - ()
Month to date snowfall 22.6  
Since 1 September snowfall 69.9  
Snow Depth 1.00 in    
Sea Level Pressure  
Sea Level Pressure 30.09 in    
Wind  
Wind Speed 5 mph (SSE)    
Max Wind Speed 14 mph    
Max Gust Speed 20 mph    
Visibility 10 miles    
Events Rain    
T = Trace of Precipitation, MM = Missing Value Source: NWS Daily Summary

Daily Weather History Graph

Daily Weather History Graph

Search for Another Location

Airport or City:

Trip Planner

Search our weather history database for the weather conditions in past years. The results will help you decide how hot, cold, wet, or windy it might be!

Date:

Astronomy

Jan. 25, 2011 Rise Set
Actual Time 7:33 AM EST 5:39 PM EST
Civil Twilight 7:05 AM EST 6:08 PM EST
Nautical Twilight 6:34 AM EST 6:39 PM EST
Astronomical Twilight 6:02 AM EST 7:11 PM EST
Moon No Moon Rise 10:42 AM EST (1/25)
Length of Visible Light 11h 02m
Length of Day
10h 06m
Waning Gibbous, 60% of the Moon is Illuminated
Jan 25
Waning Gibbous
Jan 26
Last Quarter
Feb 2
New
Feb 11
First Quarter
Feb 18
Full

Hourly Weather History & Observations

Time (EST) Temp. Windchill Dew Point Humidity Pressure Visibility Wind Dir Wind Speed Gust Speed Precip Events Conditions
12:51 AM 33.1 °F 26.9 °F 19.9 °F 59% 30.21 in 10.0 mi SSE 6.9 mph - N/A   Overcast
1:51 AM 33.1 °F 27.7 °F 21.0 °F 61% 30.18 in 10.0 mi SSE 5.8 mph - N/A   Overcast
2:51 AM 33.8 °F 29.6 °F 21.2 °F 60% 30.11 in 10.0 mi SE 4.6 mph - N/A   Overcast
3:51 AM 32.0 °F 28.7 °F 19.9 °F 61% 30.17 in 10.0 mi SSE 3.5 mph - N/A   Clear
4:51 AM 32.0 °F - 21.0 °F 64% 30.16 in 10.0 mi Calm Calm - N/A   Mostly Cloudy
5:51 AM 32.0 °F 27.5 °F 21.9 °F 66% 30.17 in 10.0 mi South 4.6 mph - N/A   Overcast
6:51 AM 35.1 °F 32.2 °F 21.0 °F 57% 30.18 in 10.0 mi SSW 3.5 mph - N/A   Overcast
7:51 AM 36.0 °F - 19.9 °F 52% 30.18 in 10.0 mi Calm Calm - N/A   Overcast
8:51 AM 37.0 °F - 21.0 °F 52% 30.18 in 10.0 mi Calm Calm - N/A   Overcast
9:51 AM 39.0 °F 36.8 °F 21.9 °F 50% 30.19 in 10.0 mi SW 3.5 mph - N/A   Overcast
10:51 AM 42.1 °F 39.2 °F 24.1 °F 49% 30.16 in 10.0 mi WSW 4.6 mph - N/A   Overcast
11:51 AM 43.0 °F 38.8 °F 24.1 °F 47% 30.15 in 10.0 mi West 6.9 mph - N/A   Clear
12:51 PM 44.1 °F 40.1 °F 25.0 °F 47% 30.12 in 10.0 mi SW 6.9 mph - N/A   Clear
1:51 PM 44.1 °F 41.5 °F 25.0 °F 47% 30.09 in 10.0 mi West 4.6 mph - N/A   Clear
2:51 PM 44.6 °F - 24.8 °F 46% 30.01 in 10.0 mi Calm Calm - N/A   Partly Cloudy
3:51 PM 44.1 °F - 25.0 °F 47% 30.04 in 10.0 mi Calm Calm - N/A   Clear
4:51 PM 42.1 °F 39.2 °F 27.0 °F 55% 30.04 in 10.0 mi SE 4.6 mph - N/A   Partly Cloudy
5:51 PM 41.0 °F 37.1 °F 26.1 °F 55% 30.03 in 10.0 mi ESE 5.8 mph - N/A   Partly Cloudy
6:51 PM 39.9 °F 35.1 °F 25.0 °F 55% 30.01 in 10.0 mi ESE 6.9 mph - N/A   Overcast
7:51 PM 39.9 °F 33.9 °F 26.1 °F 58% 29.98 in 10.0 mi ESE 9.2 mph - N/A   Overcast
8:51 PM 39.9 °F 35.8 °F 26.1 °F 58% 29.96 in 10.0 mi East 5.8 mph - 0.00 in Rain Light Rain
9:51 PM 39.0 °F 35.7 °F 28.0 °F 65% 29.95 in 10.0 mi East 4.6 mph - 0.00 in Rain Light Rain
10:51 PM 37.0 °F 28.1 °F 30.9 °F 79% 29.93 in 10.0 mi ESE 15.0 mph 19.6 mph 0.00 in Rain Light Rain
11:51 PM 36.0 °F 28.5 °F 32.0 °F 86% 29.89 in 7.0 mi East 10.4 mph 17.3 mph 0.03 in Rain Light Rain